Location: Newark
(48.6767°N, 1.3256°E)
Time: 13:08:19
(UTC+00:00)

ISS - Visible Passes

Search period start: 21 November 2019 00:00
Search period end: 01 December 2019 00:00
Orbit: 412 x 421 km, 51.6° (Epoch: 21 November)

Date Brightness Start Highest point End Pass type
(mag) Time Alt. Az. Time Alt. Az. Time Alt. Az.
21 Nov -1.2 18:15:30 10° S 18:16:05 13° S 18:16:05 13° S visible
22 Nov -1.4 17:28:36 10° SSE 17:29:39 11° SE 17:29:58 11° SE visible
22 Nov -0.7 19:02:30 10° SW 19:02:53 13° SW 19:02:53 13° SW visible
23 Nov -2.5 18:14:22 10° SW 18:16:40 31° S 18:16:40 31° S visible
24 Nov -2.3 17:26:25 10° SSW 17:29:13 25° SE 17:30:22 20° ESE visible
24 Nov -0.9 19:02:20 10° WSW 19:03:17 18° WSW 19:03:17 18° WSW visible
25 Nov -1.7 16:38:48 10° S 16:40:59 16° SE 16:43:11 10° E visible
25 Nov -3.5 18:13:57 10° WSW 18:16:55 65° SSW 18:16:55 65° SSW visible
26 Nov -3.4 17:25:38 10° SW 17:28:55 52° SSE 17:30:29 26° E visible
26 Nov -0.9 19:02:22 10° W 19:03:23 18° W 19:03:23 18° W visible
27 Nov -2.7 16:37:29 10° SSW 16:40:34 35° SE 16:43:40 10° E visible
27 Nov -3.4 18:13:51 10° W 18:16:54 61° NW 18:16:54 61° NW visible
28 Nov -3.8 17:25:22 10° WSW 17:28:43 84° NNW 17:30:23 28° ENE visible
28 Nov -0.8 19:02:25 10° WNW 19:03:17 17° WNW 19:03:17 17° WNW visible
29 Nov -3.6 16:36:56 10° WSW 16:40:16 72° SSE 16:43:38 10° ENE visible
29 Nov -3.0 18:13:52 10° W 18:16:44 46° NNW 18:16:44 46° NNW visible
30 Nov -3.5 17:25:18 10° W 17:28:37 56° N 17:30:11 27° ENE visible
30 Nov -0.8 19:02:20 10° WNW 19:03:05 15° WNW 19:03:05 15° WNW visible
